Wetterdaten: Samstag, 31.03.2018
Datum Zeit Temp. A. Aussen2m Boden Feuchte A. Feuchte 2 Luftdruck Regen Wind Richtung Richtung Sonnenschein
31.03.2018 00:00 8,6 C 8,7 C 7,3 C 81 % 80 % 995,7 hPa 0,0 l/m 9,1 km/h (2 Bft) S-SO 160 0 min
31.03.2018 00:05 8,5 C 8,6 C 7,3 C 81 % 80 % 995,7 hPa 0,0 l/m 9,7 km/h (2 Bft) SO 130 0 min
31.03.2018 00:10 8,5 C 8,6 C 7,3 C 81 % 79 % 996,7 hPa 0,0 l/m 10,3 km/h (2 Bft) S 180 0 min
31.03.2018 00:15 8,4 C 8,6 C 7,3 C 81 % 80 % 996,7 hPa 0,0 l/m 10,3 km/h (2 Bft) SO 125 0 min
31.03.2018 00:20 8,4 C 8,5 C 7,3 C 81 % 80 % 996,7 hPa 0,0 l/m 10,9 km/h (2 Bft) S-SO 150 0 min
31.03.2018 00:25 8,4 C 8,5 C 7,3 C 81 % 80 % 996,7 hPa 0,0 l/m 9,7 km/h (2 Bft) S 190 0 min
31.03.2018 00:30 8,4 C 8,5 C 7,3 C 81 % 80 % 996,7 hPa 0,0 l/m 9,1 km/h (2 Bft) S-SW 205 0 min
31.03.2018 00:35 8,4 C 8,5 C 7,3 C 81 % 80 % 996,7 hPa 0,0 l/m 7,9 km/h (2 Bft) SO 145 0 min
31.03.2018 00:40 8,4 C 8,4 C 7,3 C 81 % 80 % 996,7 hPa 0,0 l/m 10,9 km/h (2 Bft) S-SO 165 0 min
31.03.2018 00:45 8,4 C 8,5 C 7,3 C 81 % 80 % 996,7 hPa 0,0 l/m 12,7 km/h (3 Bft) S 180 0 min
31.03.2018 00:50 8,5 C 8,5 C 7,3 C 80 % 80 % 996,7 hPa 0,0 l/m 12,7 km/h (3 Bft) S-SO 150 0 min
31.03.2018 00:55 8,4 C 8,5 C 7,3 C 80 % 80 % 995,7 hPa 0,0 l/m 15,7 km/h (3 Bft) S-SO 160 0 min
31.03.2018 01:00 8,4 C 8,4 C 7,3 C 80 % 80 % 995,7 hPa 0,0 l/m 10,3 km/h (2 Bft) SO 140 0 min
31.03.2018 01:05 8,4 C 8,4 C 7,3 C 80 % 80 % 995,7 hPa 0,0 l/m 9,7 km/h (2 Bft) S-SO 160 0 min
31.03.2018 01:10 8,4 C 8,4 C 7,3 C 80 % 79 % 996,7 hPa 0,0 l/m 9,7 km/h (2 Bft) S-SO 160 0 min
31.03.2018 01:15 8,3 C 8,4 C 7,3 C 81 % 80 % 996,7 hPa 0,0 l/m 8,5 km/h (2 Bft) S-SO 155 0 min
31.03.2018 01:20 8,3 C 8,4 C 7,3 C 81 % 80 % 996,7 hPa 0,0 l/m 9,7 km/h (2 Bft) S-SO 160 0 min
31.03.2018 01:25 8,2 C 8,3 C 7,3 C 81 % 80 % 995,7 hPa 0,0 l/m 7,9 km/h (2 Bft) SO 145 0 min
31.03.2018 01:30 8,2 C 8,3 C 7,3 C 81 % 80 % 995,7 hPa 0,0 l/m 10,3 km/h (2 Bft) S-SO 160 0 min
31.03.2018 01:35 8,2 C 8,3 C 7,3 C 81 % 80 % 995,7 hPa 0,0 l/m 10,3 km/h (2 Bft) SO 125 0 min
31.03.2018 01:40 8,1 C 8,2 C 7,3 C 82 % 80 % 995,7 hPa 0,0 l/m 4,8 km/h (1 Bft) SO 135 0 min
31.03.2018 01:45 8,1 C 8,2 C 7,2 C 82 % 80 % 995,7 hPa 0,0 l/m 6,1 km/h (2 Bft) S-SO 165 0 min
31.03.2018 01:50 8,0 C 8,2 C 7,2 C 83 % 81 % 995,7 hPa 0,0 l/m 9,7 km/h (2 Bft) SO 145 0 min
31.03.2018 01:55 8,1 C 8,2 C 7,2 C 82 % 81 % 995,7 hPa 0,0 l/m 7,3 km/h (2 Bft) S-SO 150 0 min
31.03.2018 02:00 8,1 C 8,1 C 7,2 C 82 % 81 % 995,7 hPa 0,0 l/m 9,1 km/h (2 Bft) SO 125 0 min
31.03.2018 02:05 8,0 C 8,1 C 7,2 C 82 % 80 % 995,7 hPa 0,0 l/m 9,7 km/h (2 Bft) SO 135 0 min
31.03.2018 02:10 8,0 C 8,0 C 7,2 C 81 % 80 % 995,7 hPa 0,0 l/m 10,3 km/h (2 Bft) SO 145 0 min
31.03.2018 02:15 7,9 C 8,0 C 7,2 C 82 % 80 % 995,7 hPa 0,0 l/m 7,9 km/h (2 Bft) S 175 0 min
31.03.2018 02:20 7,9 C 8,0 C 7,2 C 82 % 80 % 995,7 hPa 0,0 l/m 9,1 km/h (2 Bft) S-SO 155 0 min
31.03.2018 02:25 7,9 C 8,0 C 7,2 C 82 % 80 % 996,7 hPa 0,0 l/m 7,3 km/h (2 Bft) S-SO 165 0 min
31.03.2018 02:30 8,0 C 8,0 C 7,2 C 81 % 80 % 996,7 hPa 0,0 l/m 7,3 km/h (2 Bft) SO 140 0 min
31.03.2018 02:35 8,0 C 8,0 C 7,2 C 82 % 80 % 996,7 hPa 0,0 l/m 4,2 km/h (1 Bft) S-SO 155 0 min
31.03.2018 02:40 8,0 C 8,0 C 7,2 C 81 % 80 % 996,7 hPa 0,0 l/m 9,1 km/h (2 Bft) SO 145 0 min
31.03.2018 02:45 7,9 C 8,0 C 7,2 C 81 % 80 % 996,7 hPa 0,0 l/m 4,8 km/h (1 Bft) S-SO 155 0 min
31.03.2018 02:50 7,8 C 7,9 C 7,2 C 82 % 80 % 996,7 hPa 0,0 l/m 6,1 km/h (2 Bft) S-SO 155 0 min
31.03.2018 02:55 7,7 C 7,9 C 7,2 C 82 % 80 % 996,7 hPa 0,0 l/m 5,4 km/h (2 Bft) SO 145 0 min
31.03.2018 03:00 7,7 C 7,8 C 7,2 C 82 % 80 % 996,8 hPa 0,0 l/m 4,2 km/h (1 Bft) S-SO 155 0 min
31.03.2018 03:05 7,5 C 7,7 C 6,4 C 82 % 81 % 996,8 hPa 0,0 l/m 6,1 km/h (2 Bft) SW 215 0 min
31.03.2018 03:10 7,4 C 7,6 C 6,4 C 82 % 81 % 995,7 hPa 0,0 l/m 3,0 km/h (1 Bft) S-SW 200 0 min
31.03.2018 03:15 7,2 C 7,4 C 6,4 C 83 % 81 % 995,8 hPa 0,0 l/m 4,2 km/h (1 Bft) S 170 0 min
31.03.2018 03:20 7,2 C 7,3 C 6,4 C 83 % 81 % 995,8 hPa 0,0 l/m 2,4 km/h (1 Bft) S-SO 155 0 min
31.03.2018 03:25 7,2 C 7,3 C 6,4 C 83 % 81 % 994,7 hPa 0,0 l/m 3,6 km/h (1 Bft) S 175 0 min
31.03.2018 03:30 7,2 C 7,2 C 6,4 C 84 % 81 % 994,8 hPa 0,0 l/m 1,8 km/h (1 Bft) S-SO 150 0 min
31.03.2018 03:35 7,1 C 7,1 C 6,4 C 84 % 81 % 994,8 hPa 0,0 l/m 1,8 km/h (1 Bft) S 190 0 min
31.03.2018 03:40 7,1 C 7,1 C 6,4 C 84 % 81 % 996,8 hPa 0,0 l/m 1,2 km/h (1 Bft) S-SW 210 0 min
31.03.2018 03:45 7,0 C 7,0 C 6,4 C 84 % 81 % 996,8 hPa 0,0 l/m 1,8 km/h (1 Bft) S-SO 155 0 min
31.03.2018 03:50 7,0 C 6,9 C 6,4 C 84 % 81 % 996,8 hPa 0,0 l/m 2,4 km/h (1 Bft) S-SW 205 0 min
31.03.2018 03:55 6,9 C 6,9 C 6,4 C 84 % 82 % 995,8 hPa 0,0 l/m 2,4 km/h (1 Bft) SO 145 0 min
31.03.2018 04:00 6,8 C 6,8 C 6,4 C 84 % 82 % 995,8 hPa 0,0 l/m 3,6 km/h (1 Bft) S-SO 160 0 min
31.03.2018 04:05 6,8 C 6,8 C 6,4 C 84 % 83 % 995,8 hPa 0,0 l/m 3,0 km/h (1 Bft) S-SO 150 0 min
31.03.2018 04:10 6,7 C 6,7 C 6,4 C 85 % 82 % 996,8 hPa 0,0 l/m 2,4 km/h (1 Bft) S 170 0 min
31.03.2018 04:15 6,6 C 6,7 C 6,4 C 85 % 82 % 996,8 hPa 0,0 l/m 1,2 km/h (1 Bft) S 180 0 min
31.03.2018 04:20 6,6 C 6,6 C 6,4 C 85 % 82 % 996,8 hPa 0,0 l/m 2,4 km/h (1 Bft) S-SO 160 0 min
31.03.2018 04:25 6,4 C 6,5 C 6,4 C 86 % 82 % 995,8 hPa 0,0 l/m 1,8 km/h (1 Bft) S 170 0 min
31.03.2018 04:30 6,4 C 6,4 C 6,4 C 86 % 83 % 995,8 hPa 0,0 l/m 1,8 km/h (1 Bft) S 170 0 min
31.03.2018 04:35 6,3 C 6,3 C 6,4 C 86 % 83 % 995,8 hPa 0,0 l/m 0,0 km/h (0 Bft) S 180 0 min
31.03.2018 04:40 6,2 C 6,2 C 5,5 C 86 % 83 % 996,8 hPa 0,0 l/m 0,0 km/h (0 Bft) S-SW 205 0 min
31.03.2018 04:45 6,2 C 6,2 C 5,5 C 87 % 84 % 996,8 hPa 0,0 l/m 1,2 km/h (1 Bft) S-SO 160 0 min
31.03.2018 04:50 6,2 C 6,1 C 5,5 C 87 % 84 % 996,8 hPa 0,0 l/m 2,4 km/h (1 Bft) S-SO 155 0 min
31.03.2018 04:55 6,2 C 6,1 C 5,5 C 87 % 84 % 996,8 hPa 0,0 l/m 1,8 km/h (1 Bft) S 180 0 min
31.03.2018 05:00 6,1 C 6,1 C 5,5 C 87 % 84 % 996,8 hPa 0,0 l/m 0,0 km/h (0 Bft) S-SO 160 0 min
31.03.2018 05:05 6,0 C 6,0 C 5,5 C 87 % 84 % 996,8 hPa 0,0 l/m 0,0 km/h (0 Bft) S-SO 155 0 min
31.03.2018 05:10 5,8 C 5,8 C 5,5 C 87 % 84 % 996,8 hPa 0,0 l/m 0,6 km/h (0 Bft) SO 135 0 min
31.03.2018 05:15 5,7 C 5,8 C 5,5 C 88 % 84 % 996,8 hPa 0,0 l/m 0,0 km/h (0 Bft) SO 140 0 min
31.03.2018 05:20 5,6 C 5,6 C 5,5 C 88 % 84 % 996,8 hPa 0,0 l/m 1,2 km/h (1 Bft) O-SO 115 0 min
31.03.2018 05:25 5,5 C 5,6 C 5,5 C 89 % 84 % 995,8 hPa 0,0 l/m 2,4 km/h (1 Bft) SO 140 0 min
31.03.2018 05:30 5,5 C 5,4 C 5,5 C 89 % 85 % 995,8 hPa 0,0 l/m 1,8 km/h (1 Bft) S-SO 160 0 min
31.03.2018 05:35 5,4 C 5,4 C 5,5 C 89 % 85 % 995,8 hPa 0,0 l/m 1,2 km/h (1 Bft) S-SO 155 0 min
31.03.2018 05:40 5,4 C 5,3 C 5,5 C 90 % 85 % 996,8 hPa 0,0 l/m 3,0 km/h (1 Bft) S-SO 150 0 min
31.03.2018 05:45 5,3 C 5,3 C 5,5 C 90 % 86 % 996,8 hPa 0,0 l/m 2,4 km/h (1 Bft) SO 140 0 min
31.03.2018 05:50 5,3 C 5,2 C 5,5 C 90 % 86 % 996,8 hPa 0,0 l/m 3,6 km/h (1 Bft) O-SO 120 0 min
31.03.2018 05:55 5,0 C 5,1 C 5,3 C 90 % 86 % 996,8 hPa 0,0 l/m 1,8 km/h (1 Bft) O-SO 120 0 min
31.03.2018 06:00 4,9 C 4,9 C 5,3 C 90 % 86 % 996,8 hPa 0,0 l/m 2,4 km/h (1 Bft) O-SO 110 0 min
31.03.2018 06:05 4,9 C 4,9 C 5,3 C 90 % 86 % 996,8 hPa 0,0 l/m 2,4 km/h (1 Bft) O-SO 110 0 min
31.03.2018 06:10 4,9 C 4,8 C 5,3 C 90 % 87 % 996,8 hPa 0,0 l/m 2,4 km/h (1 Bft) O-SO 110 0 min
31.03.2018 06:15 4,7 C 4,8 C 5,3 C 93 % 87 % 996,8 hPa 0,0 l/m 3,6 km/h (1 Bft) SO 135 0 min
31.03.2018 06:20 4,7 C 4,7 C 4,9 C 93 % 87 % 996,8 hPa 0,0 l/m 3,6 km/h (1 Bft) SO 135 0 min
31.03.2018 06:25 4,7 C 4,5 C 4,9 C 93 % 88 % 996,8 hPa 0,0 l/m 3,6 km/h (1 Bft) SO 135 0 min
31.03.2018 06:30 4,7 C 4,4 C 4,9 C 93 % 88 % 996,8 hPa 0,0 l/m 3,6 km/h (1 Bft) SO 135 0 min
31.03.2018 06:35 4,7 C 4,3 C 4,9 C 93 % 89 % 996,8 hPa 0,0 l/m 3,6 km/h (1 Bft) SO 135 0 min
31.03.2018 06:40 4,7 C 4,2 C 4,9 C 93 % 89 % 996,8 hPa 0,0 l/m 3,6 km/h (1 Bft) SO 135 0 min
31.03.2018 06:45 4,7 C 4,2 C 4,9 C 93 % 90 % 996,8 hPa 0,0 l/m 3,6 km/h (1 Bft) SO 135 0 min
31.03.2018 06:50 4,7 C 4,2 C 4,9 C 93 % 90 % 996,8 hPa 0,0 l/m 3,6 km/h (1 Bft) SO 135 0 min
31.03.2018 06:55 4,7 C 4,1 C 4,9 C 93 % 90 % 996,8 hPa 0,0 l/m 3,6 km/h (1 Bft) SO 135 0 min
31.03.2018 07:00 4,7 C 4,0 C 4,9 C 93 % 90 % 996,8 hPa 0,0 l/m 3,6 km/h (1 Bft) SO 135 0 min
31.03.2018 07:05 4,0 C 4,0 C 4,9 C 95 % 90 % 996,8 hPa 0,0 l/m 2,4 km/h (1 Bft) SO 140 0 min
31.03.2018 07:10 4,0 C 4,0 C 4,9 C 95 % 90 % 996,8 hPa 0,0 l/m 2,4 km/h (1 Bft) SO 145 0 min
31.03.2018 07:15 4,0 C 4,0 C 4,5 C 95 % 90 % 996,8 hPa 0,0 l/m 1,8 km/h (1 Bft) SO 130 0 min
31.03.2018 07:20 4,0 C 4,0 C 4,5 C 95 % 90 % 996,8 hPa 0,0 l/m 1,8 km/h (1 Bft) SO 130 0 min
31.03.2018 07:25 4,1 C 4,0 C 4,5 C 96 % 90 % 996,8 hPa 0,0 l/m 2,4 km/h (1 Bft) O-SO 120 0 min
31.03.2018 07:30 4,1 C 4,0 C 4,5 C 96 % 90 % 996,8 hPa 0,0 l/m 1,8 km/h (1 Bft) S-SO 150 0 min
31.03.2018 07:35 4,1 C 4,1 C 4,5 C 96 % 90 % 996,8 hPa 0,0 l/m 1,8 km/h (1 Bft) S-SO 150 0 min
31.03.2018 07:40 3,9 C 4,0 C 4,5 C 96 % 90 % 996,8 hPa 0,0 l/m 0,0 km/h (0 Bft) O-SO 110 0 min
31.03.2018 07:45 3,9 C 4,0 C 4,5 C 96 % 90 % 996,8 hPa 0,0 l/m 0,0 km/h (0 Bft) SO 130 0 min
31.03.2018 07:50 3,9 C 4,0 C 4,5 C 96 % 90 % 996,8 hPa 0,0 l/m 1,2 km/h (1 Bft) O-SO 105 0 min
31.03.2018 07:55 3,9 C 4,0 C 4,5 C 96 % 91 % 996,8 hPa 0,0 l/m 1,2 km/h (1 Bft) O-SO 110 0 min
31.03.2018 08:00 4,1 C 4,0 C 4,5 C 96 % 91 % 996,8 hPa 0,0 l/m 3,0 km/h (1 Bft) O-SO 110 0 min
31.03.2018 08:05 4,1 C 4,0 C 4,5 C 96 % 91 % 996,8 hPa 0,0 l/m 3,0 km/h (1 Bft) O-SO 110 0 min
31.03.2018 08:10 3,9 C 4,0 C 4,5 C 96 % 91 % 996,8 hPa 0,0 l/m 6,1 km/h (2 Bft) O-SO 110 0 min
31.03.2018 08:15 3,9 C 4,0 C 4,5 C 96 % 92 % 996,8 hPa 0,0 l/m 4,8 km/h (1 Bft) O-SO 120 0 min
31.03.2018 08:20 3,9 C 4,0 C 4,5 C 96 % 91 % 996,8 hPa 0,0 l/m 4,8 km/h (1 Bft) SO 130 0 min
31.03.2018 08:25 3,9 C 4,0 C 4,5 C 96 % 91 % 996,8 hPa 0,0 l/m 4,8 km/h (1 Bft) SO 135 0 min
31.03.2018 08:30 4,0 C 4,0 C 4,5 C 96 % 91 % 996,8 hPa 0,0 l/m 4,2 km/h (1 Bft) O-SO 115 1 min
31.03.2018 08:35 4,1 C 4,0 C 4,5 C 96 % 91 % 996,8 hPa 0,0 l/m 2,4 km/h (1 Bft) SO 140 1 min
31.03.2018 08:40 4,2 C 4,1 C 4,5 C 96 % 92 % 996,8 hPa 0,0 l/m 4,2 km/h (1 Bft) SO 140 3 min
31.03.2018 08:45 4,2 C 4,2 C 4,7 C 96 % 92 % 996,8 hPa 0,0 l/m 4,2 km/h (1 Bft) SO 140 0 min
31.03.2018 08:50 4,2 C 4,3 C 4,7 C 96 % 92 % 996,8 hPa 0,0 l/m 4,2 km/h (1 Bft) SO 140 0 min
31.03.2018 08:55 4,7 C 4,4 C 4,7 C 95 % 92 % 996,8 hPa 0,0 l/m 3,6 km/h (1 Bft) O-SO 120 16 min
31.03.2018 09:00 4,7 C 4,5 C 4,7 C 95 % 92 % 996,8 hPa 0,0 l/m 3,6 km/h (1 Bft) O-SO 120 0 min
31.03.2018 09:05 4,7 C 4,7 C 4,7 C 95 % 92 % 996,8 hPa 0,0 l/m 3,6 km/h (1 Bft) O-SO 120 0 min
31.03.2018 09:10 5,4 C 4,8 C 4,7 C 93 % 92 % 997,8 hPa 0,0 l/m 4,8 km/h (1 Bft) O 100 9 min
31.03.2018 09:15 5,4 C 5,0 C 4,9 C 93 % 92 % 997,8 hPa 0,0 l/m 4,8 km/h (1 Bft) O 100 0 min
31.03.2018 09:20 5,6 C 5,0 C 4,9 C 92 % 92 % 997,8 hPa 0,0 l/m 1,8 km/h (1 Bft) S-SO 160 6 min
31.03.2018 09:25 5,6 C 5,3 C 4,9 C 92 % 92 % 997,8 hPa 0,0 l/m 1,8 km/h (1 Bft) S-SO 160 0 min
31.03.2018 09:30 6,1 C 5,4 C 4,9 C 92 % 92 % 997,8 hPa 0,0 l/m 3,0 km/h (1 Bft) S-SO 155 8 min
31.03.2018 09:35 6,4 C 5,7 C 4,9 C 91 % 92 % 997,8 hPa 0,0 l/m 4,8 km/h (1 Bft) S 170 5 min
31.03.2018 09:40 6,9 C 5,8 C 4,9 C 90 % 92 % 996,8 hPa 0,0 l/m 7,3 km/h (2 Bft) O 100 8 min
31.03.2018 09:45 7,2 C 6,2 C 4,9 C 88 % 92 % 996,8 hPa 0,0 l/m 9,7 km/h (2 Bft) S-SO 155 5 min
31.03.2018 09:50 7,4 C 6,4 C 4,9 C 87 % 91 % 996,8 hPa 0,0 l/m 8,5 km/h (2 Bft) SO 125 5 min
31.03.2018 09:55 7,5 C 6,7 C 4,9 C 87 % 91 % 996,8 hPa 0,0 l/m 9,1 km/h (2 Bft) S-SO 165 2 min
31.03.2018 10:00 7,6 C 7,0 C 5,9 C 86 % 90 % 996,8 hPa 0,0 l/m 10,9 km/h (2 Bft) SO 135 6 min
31.03.2018 10:05 7,9 C 7,1 C 5,9 C 84 % 89 % 996,8 hPa 0,0 l/m 12,7 km/h (3 Bft) SO 145 7 min
31.03.2018 10:10 7,8 C 7,4 C 6,1 C 84 % 88 % 997,8 hPa 0,0 l/m 12,7 km/h (3 Bft) S 170 3 min
31.03.2018 10:15 8,2 C 7,6 C 6,1 C 82 % 87 % 997,8 hPa 0,0 l/m 10,9 km/h (2 Bft) O-SO 110 5 min
31.03.2018 10:20 8,5 C 7,9 C 6,1 C 82 % 86 % 997,8 hPa 0,0 l/m 12,1 km/h (2 Bft) SO 125 5 min
31.03.2018 10:25 8,6 C 8,1 C 6,2 C 80 % 85 % 997,8 hPa 0,0 l/m 12,1 km/h (2 Bft) SO 140 3 min
31.03.2018 10:30 8,9 C 8,4 C 6,4 C 79 % 83 % 997,7 hPa 0,0 l/m 14,5 km/h (3 Bft) S-SO 165 7 min
31.03.2018 10:35 9,3 C 8,6 C 6,4 C 78 % 83 % 997,7 hPa 0,0 l/m 10,9 km/h (2 Bft) S-SO 150 5 min
31.03.2018 10:40 9,2 C 8,9 C 6,4 C 77 % 83 % 997,7 hPa 0,0 l/m 11,5 km/h (2 Bft) SO 125 5 min
31.03.2018 10:45 9,6 C 9,2 C 6,4 C 75 % 81 % 997,7 hPa 0,0 l/m 12,1 km/h (2 Bft) SO 140 6 min
31.03.2018 10:50 9,9 C 9,4 C 6,6 C 74 % 79 % 997,7 hPa 0,0 l/m 10,3 km/h (2 Bft) S 185 4 min
31.03.2018 10:55 9,9 C 9,6 C 6,6 C 74 % 79 % 997,7 hPa 0,0 l/m 10,3 km/h (2 Bft) S-SW 200 2 min
31.03.2018 11:00 10,0 C 9,8 C 6,6 C 72 % 77 % 997,7 hPa 0,0 l/m 12,7 km/h (3 Bft) S 190 8 min
31.03.2018 11:05 10,1 C 10,0 C 6,6 C 72 % 75 % 997,7 hPa 0,0 l/m 14,5 km/h (3 Bft) S 175 5 min
31.03.2018 11:10 10,0 C 10,1 C 6,6 C 71 % 76 % 997,7 hPa 0,0 l/m 10,3 km/h (2 Bft) SO 140 3 min
31.03.2018 11:15 10,4 C 10,4 C 6,6 C 71 % 73 % 997,7 hPa 0,0 l/m 9,1 km/h (2 Bft) S-SW 200 8 min
31.03.2018 11:20 10,5 C 10,5 C 7,0 C 69 % 73 % 997,7 hPa 0,0 l/m 9,1 km/h (2 Bft) S-SO 155 2 min
31.03.2018 11:25 10,5 C 10,7 C 7,2 C 69 % 71 % 997,7 hPa 0,0 l/m 9,1 km/h (2 Bft) S-SO 155 0 min
31.03.2018 11:30 10,5 C 10,8 C 7,2 C 69 % 70 % 997,7 hPa 0,0 l/m 9,1 km/h (2 Bft) S-SO 155 0 min
31.03.2018 11:35 10,7 C 11,0 C 7,2 C 66 % 69 % 997,7 hPa 0,0 l/m 9,7 km/h (2 Bft) S-SO 155 15 min
31.03.2018 11:40 10,9 C 11,1 C 7,2 C 63 % 67 % 997,7 hPa 0,0 l/m 10,3 km/h (2 Bft) S 190 8 min
31.03.2018 11:45 10,9 C 11,4 C 7,2 C 63 % 67 % 997,7 hPa 0,0 l/m 10,3 km/h (2 Bft) S 190 0 min
31.03.2018 11:50 11,2 C 11,4 C 7,2 C 60 % 66 % 997,7 hPa 0,0 l/m 13,3 km/h (3 Bft) S 190 10 min
31.03.2018 11:55 11,3 C 11,6 C 7,2 C 58 % 64 % 997,7 hPa 0,0 l/m 13,3 km/h (3 Bft) O 100 5 min
31.03.2018 12:00 11,7 C 11,8 C 7,2 C 59 % 64 % 997,7 hPa 0,0 l/m 10,3 km/h (2 Bft) O-SO 105 2 min
31.03.2018 12:05 11,5 C 11,8 C 7,5 C 59 % 63 % 997,7 hPa 0,0 l/m 12,1 km/h (2 Bft) SW 235 6 min
31.03.2018 12:10 11,9 C 12,0 C 7,5 C 57 % 63 % 996,7 hPa 0,0 l/m 14,5 km/h (3 Bft) S-SO 150 7 min
31.03.2018 12:15 11,9 C 12,0 C 7,5 C 57 % 62 % 996,7 hPa 0,0 l/m 10,3 km/h (2 Bft) O 85 5 min
31.03.2018 12:20 12,2 C 12,3 C 7,5 C 57 % 62 % 996,7 hPa 0,0 l/m 14,5 km/h (3 Bft) O-SO 120 3 min
31.03.2018 12:25 11,8 C 12,4 C 7,7 C 56 % 62 % 997,7 hPa 0,0 l/m 17,6 km/h (3 Bft) SW 225 8 min
31.03.2018 12:30 12,1 C 12,4 C 7,7 C 56 % 61 % 997,7 hPa 0,0 l/m 12,7 km/h (3 Bft) O 100 4 min
31.03.2018 12:35 12,2 C 12,6 C 7,7 C 56 % 60 % 997,7 hPa 0,0 l/m 11,5 km/h (2 Bft) SW 220 6 min
31.03.2018 12:40 11,9 C 12,6 C 7,7 C 55 % 61 % 997,7 hPa 0,0 l/m 15,1 km/h (3 Bft) S 170 5 min
31.03.2018 12:45 12,4 C 12,6 C 7,7 C 56 % 60 % 997,7 hPa 0,0 l/m 12,1 km/h (2 Bft) S 170 5 min
31.03.2018 12:50 12,4 C 12,7 C 7,7 C 55 % 61 % 997,7 hPa 0,0 l/m 12,7 km/h (3 Bft) SO 145 3 min
31.03.2018 12:55 12,4 C 13,0 C 7,7 C 56 % 61 % 997,7 hPa 0,0 l/m 18,8 km/h (3 Bft) S 180 5 min
31.03.2018 13:00 12,3 C 13,0 C 7,7 C 55 % 60 % 997,7 hPa 0,0 l/m 8,5 km/h (2 Bft) S 180 5 min
31.03.2018 13:05 12,3 C 12,8 C 7,9 C 56 % 60 % 997,7 hPa 0,0 l/m 13,3 km/h (3 Bft) S 170 5 min
31.03.2018 13:10 12,1 C 12,9 C 7,9 C 56 % 59 % 997,7 hPa 0,0 l/m 15,7 km/h (3 Bft) SO 135 5 min
31.03.2018 13:15 12,5 C 13,0 C 8,2 C 54 % 59 % 997,7 hPa 0,0 l/m 9,7 km/h (2 Bft) SW 215 5 min
31.03.2018 13:20 12,6 C 13,3 C 8,2 C 54 % 61 % 997,7 hPa 0,0 l/m 12,1 km/h (2 Bft) SO 130 5 min
31.03.2018 13:25 12,4 C 12,8 C 8,0 C 54 % 58 % 997,7 hPa 0,0 l/m 5,4 km/h (2 Bft) SW 220 6 min
31.03.2018 13:30 12,2 C 12,8 C 8,0 C 55 % 59 % 997,7 hPa 0,0 l/m 8,5 km/h (2 Bft) SO 135 4 min
31.03.2018 13:35 12,6 C 13,0 C 8,0 C 54 % 58 % 997,7 hPa 0,0 l/m 11,5 km/h (2 Bft) NO 35 6 min
31.03.2018 13:40 13,1 C 12,9 C 8,7 C 53 % 57 % 997,7 hPa 0,0 l/m 7,3 km/h (2 Bft) SO 130 4 min
31.03.2018 13:45 13,5 C 13,1 C 8,9 C 52 % 58 % 997,7 hPa 0,0 l/m 8,5 km/h (2 Bft) SO 140 5 min
31.03.2018 13:50 13,0 C 13,0 C 8,9 C 51 % 58 % 997,7 hPa 0,0 l/m 10,3 km/h (2 Bft) S-SO 160 4 min
31.03.2018 13:55 12,6 C 12,8 C 8,9 C 54 % 58 % 997,7 hPa 0,0 l/m 8,5 km/h (2 Bft) NW 310 5 min
31.03.2018 14:00 13,1 C 12,8 C 8,9 C 51 % 58 % 997,7 hPa 0,0 l/m 6,1 km/h (2 Bft) S-SW 210 5 min
31.03.2018 14:05 13,3 C 13,2 C 8,7 C 53 % 59 % 997,7 hPa 0,0 l/m 11,5 km/h (2 Bft) S-SO 160 5 min
31.03.2018 14:10 12,9 C 13,1 C 8,9 C 52 % 57 % 997,7 hPa 0,0 l/m 9,1 km/h (2 Bft) W-SW 240 4 min
31.03.2018 14:15 12,6 C 12,7 C 8,9 C 54 % 59 % 997,7 hPa 0,0 l/m 6,7 km/h (2 Bft) SO 135 6 min
31.03.2018 14:20 12,4 C 12,6 C 8,9 C 54 % 58 % 997,7 hPa 0,0 l/m 4,8 km/h (1 Bft) SW 230 0 min
31.03.2018 14:25 12,3 C 12,6 C 8,9 C 56 % 61 % 996,7 hPa 0,0 l/m 4,8 km/h (1 Bft) SW 235 2 min
31.03.2018 14:30 12,3 C 12,4 C 9,1 C 55 % 58 % 996,7 hPa 0,0 l/m 4,2 km/h (1 Bft) NW 305 4 min
31.03.2018 14:35 12,2 C 12,3 C 9,2 C 56 % 58 % 996,7 hPa 0,0 l/m 15,7 km/h (3 Bft) W-NW 300 5 min
31.03.2018 14:40 12,3 C 12,4 C 9,2 C 56 % 60 % 997,7 hPa 0,0 l/m 14,5 km/h (3 Bft) W-NW 295 3 min
31.03.2018 14:45 12,7 C 12,5 C 9,4 C 54 % 58 % 997,7 hPa 0,0 l/m 14,5 km/h (3 Bft) W 265 5 min
31.03.2018 14:50 12,8 C 12,4 C 9,4 C 53 % 57 % 997,7 hPa 0,0 l/m 9,7 km/h (2 Bft) W-NW 295 5 min
31.03.2018 14:55 12,7 C 12,5 C 9,6 C 55 % 58 % 997,7 hPa 0,0 l/m 8,5 km/h (2 Bft) W-NW 300 5 min
31.03.2018 15:00 13,2 C 12,7 C 9,6 C 53 % 57 % 997,7 hPa 0,0 l/m 9,1 km/h (2 Bft) W-NW 285 3 min
31.03.2018 15:05 12,8 C 12,6 C 9,7 C 53 % 58 % 997,7 hPa 0,0 l/m 9,7 km/h (2 Bft) W-NW 285 5 min
31.03.2018 15:10 12,7 C 12,6 C 9,7 C 54 % 59 % 997,7 hPa 0,0 l/m 8,5 km/h (2 Bft) W-NW 295 6 min
31.03.2018 15:15 12,8 C 12,6 C 9,7 C 54 % 58 % 997,7 hPa 0,0 l/m 6,7 km/h (2 Bft) W-NW 300 4 min
31.03.2018 15:20 12,6 C 12,6 C 9,6 C 54 % 58 % 997,7 hPa 0,0 l/m 7,9 km/h (2 Bft) W-NW 295 5 min
31.03.2018 15:25 13,1 C 12,6 C 9,7 C 55 % 59 % 996,7 hPa 0,0 l/m 4,2 km/h (1 Bft) W-NW 290 5 min
31.03.2018 15:30 12,7 C 12,6 C 9,7 C 54 % 58 % 996,7 hPa 0,0 l/m 15,7 km/h (3 Bft) W-NW 295 5 min
31.03.2018 15:35 13,0 C 12,7 C 9,7 C 53 % 57 % 996,7 hPa 0,0 l/m 16,3 km/h (3 Bft) NO 50 4 min
31.03.2018 15:40 13,1 C 12,8 C 9,7 C 52 % 57 % 996,7 hPa 0,0 l/m 7,3 km/h (2 Bft) NO 40 4 min
31.03.2018 15:45 13,5 C 13,0 C 9,9 C 51 % 57 % 996,7 hPa 0,0 l/m 7,9 km/h (2 Bft) N-NW 340 3 min
31.03.2018 15:50 13,5 C 13,2 C 10,1 C 52 % 58 % 996,7 hPa 0,0 l/m 18,8 km/h (3 Bft) NW 305 4 min
31.03.2018 15:55 13,0 C 13,0 C 10,1 C 54 % 58 % 997,7 hPa 0,0 l/m 16,9 km/h (3 Bft) NW 310 5 min
31.03.2018 16:00 13,1 C 12,9 C 9,7 C 52 % 55 % 997,7 hPa 0,0 l/m 7,3 km/h (2 Bft) W-NW 290 5 min
31.03.2018 16:05 12,9 C 12,9 C 9,7 C 55 % 58 % 997,7 hPa 0,0 l/m 21,2 km/h (4 Bft) W 270 6 min
31.03.2018 16:10 12,8 C 12,9 C 9,7 C 54 % 60 % 996,7 hPa 0,0 l/m 23,6 km/h (4 Bft) NW 305 3 min
31.03.2018 16:15 12,9 C 12,9 C 9,7 C 54 % 59 % 996,7 hPa 0,0 l/m 19,4 km/h (3 Bft) W-NW 290 3 min
31.03.2018 16:20 13,1 C 12,9 C 9,7 C 53 % 58 % 996,7 hPa 0,0 l/m 18,8 km/h (3 Bft) W-NW 285 5 min
31.03.2018 16:25 13,4 C 13,1 C 9,7 C 53 % 57 % 996,7 hPa 0,0 l/m 11,5 km/h (2 Bft) W-SW 240 2 min
31.03.2018 16:30 13,5 C 13,4 C 9,7 C 52 % 58 % 996,7 hPa 0,0 l/m 17,6 km/h (3 Bft) W-SW 255 6 min
31.03.2018 16:35 13,1 C 13,1 C 9,7 C 53 % 57 % 996,7 hPa 0,0 l/m 20,0 km/h (4 Bft) W 275 5 min
31.03.2018 16:40 13,2 C 13,1 C 9,7 C 51 % 55 % 996,7 hPa 0,0 l/m 21,2 km/h (4 Bft) NW 305 4 min
31.03.2018 16:45 12,9 C 13,0 C 9,7 C 52 % 55 % 996,7 hPa 0,0 l/m 18,2 km/h (3 Bft) NW 315 7 min
31.03.2018 16:50 12,9 C 13,0 C 9,7 C 53 % 57 % 996,7 hPa 0,0 l/m 16,3 km/h (3 Bft) W-NW 295 2 min
31.03.2018 16:55 12,9 C 13,0 C 9,7 C 52 % 57 % 997,7 hPa 0,0 l/m 18,8 km/h (3 Bft) W 270 5 min
31.03.2018 17:00 12,9 C 12,9 C 9,7 C 53 % 58 % 997,7 hPa 0,0 l/m 15,1 km/h (3 Bft) NW 325 5 min
31.03.2018 17:05 12,8 C 12,9 C 9,6 C 55 % 58 % 997,7 hPa 0,0 l/m 17,6 km/h (3 Bft) N-NW 330 5 min
31.03.2018 17:10 12,8 C 12,9 C 9,4 C 53 % 57 % 996,7 hPa 0,0 l/m 11,5 km/h (2 Bft) N-NO 30 2 min
31.03.2018 17:15 12,6 C 12,7 C 9,2 C 55 % 58 % 996,7 hPa 0,0 l/m 13,3 km/h (3 Bft) W-NW 300 8 min
31.03.2018 17:20 12,6 C 12,6 C 9,2 C 56 % 59 % 996,7 hPa 0,0 l/m 10,9 km/h (2 Bft) N 350 7 min
31.03.2018 17:25 12,6 C 12,6 C 9,2 C 56 % 58 % 997,7 hPa 0,0 l/m 15,1 km/h (3 Bft) W-NW 300 3 min
31.03.2018 17:30 12,4 C 12,6 C 9,4 C 55 % 59 % 997,7 hPa 0,0 l/m 17,6 km/h (3 Bft) W-SW 250 7 min
31.03.2018 17:35 12,5 C 12,6 C 9,4 C 56 % 60 % 997,7 hPa 0,0 l/m 13,3 km/h (3 Bft) NW 320 3 min
31.03.2018 17:40 12,6 C 12,6 C 9,2 C 57 % 60 % 996,7 hPa 0,0 l/m 15,7 km/h (3 Bft) NW 315 4 min
31.03.2018 17:45 12,5 C 12,6 C 9,2 C 56 % 60 % 996,7 hPa 0,0 l/m 14,5 km/h (3 Bft) W-NW 295 2 min
31.03.2018 17:50 12,5 C 12,5 C 9,2 C 55 % 59 % 996,7 hPa 0,0 l/m 9,7 km/h (2 Bft) NW 305 5 min
31.03.2018 17:55 12,2 C 12,3 C 9,1 C 56 % 59 % 997,7 hPa 0,0 l/m 14,5 km/h (3 Bft) W 280 1 min
31.03.2018 18:00 12,4 C 12,3 C 9,4 C 56 % 60 % 997,7 hPa 0,0 l/m 16,3 km/h (3 Bft) NW 320 5 min
31.03.2018 18:05 12,7 C 12,5 C 9,7 C 55 % 57 % 997,7 hPa 0,0 l/m 16,3 km/h (3 Bft) W-SW 250 5 min
31.03.2018 18:10 12,6 C 12,5 C 10,1 C 52 % 56 % 996,7 hPa 0,0 l/m 16,3 km/h (3 Bft) NW 315 6 min
31.03.2018 18:15 12,8 C 12,5 C 10,2 C 52 % 58 % 996,7 hPa 0,0 l/m 14,5 km/h (3 Bft) NW 325 5 min
31.03.2018 18:20 12,7 C 12,6 C 10,4 C 53 % 57 % 996,7 hPa 0,0 l/m 14,5 km/h (3 Bft) NW 320 2 min
31.03.2018 18:25 12,9 C 12,6 C 10,1 C 52 % 57 % 996,7 hPa 0,0 l/m 9,1 km/h (2 Bft) S-SO 165 7 min
31.03.2018 18:30 12,9 C 12,6 C 10,1 C 52 % 58 % 996,7 hPa 0,0 l/m 9,1 km/h (2 Bft) S-SO 165 0 min
31.03.2018 18:35 13,0 C 12,6 C 10,1 C 52 % 56 % 996,7 hPa 0,0 l/m 12,1 km/h (2 Bft) W-NW 300 7 min
31.03.2018 18:40 13,0 C 12,6 C 10,1 C 51 % 57 % 997,7 hPa 0,0 l/m 5,4 km/h (2 Bft) W 270 5 min
31.03.2018 18:45 13,0 C 12,7 C 10,1 C 51 % 57 % 997,7 hPa 0,0 l/m 5,4 km/h (2 Bft) W 270 0 min
31.03.2018 18:50 13,3 C 12,6 C 10,1 C 51 % 58 % 997,7 hPa 0,0 l/m 7,3 km/h (2 Bft) W 270 12 min
31.03.2018 18:55 13,3 C 12,7 C 10,1 C 51 % 57 % 997,7 hPa 0,0 l/m 7,3 km/h (2 Bft) W 270 0 min
31.03.2018 19:00 13,3 C 12,8 C 10,1 C 51 % 57 % 997,7 hPa 0,0 l/m 5,4 km/h (2 Bft) N 355 8 min
31.03.2018 19:05 13,3 C 12,8 C 9,1 C 51 % 57 % 997,7 hPa 0,0 l/m 5,4 km/h (2 Bft) N 355 0 min
31.03.2018 19:10 12,7 C 12,7 C 8,9 C 53 % 57 % 997,7 hPa 0,0 l/m 2,4 km/h (1 Bft) NW 320 4 min
31.03.2018 19:15 12,4 C 12,6 C 8,9 C 54 % 57 % 997,7 hPa 0,0 l/m 3,6 km/h (1 Bft) N-NO 30 0 min
31.03.2018 19:20 12,3 C 12,5 C 8,6 C 54 % 57 % 997,7 hPa 0,0 l/m 1,2 km/h (1 Bft) N-NW 340 0 min
31.03.2018 19:25 12,3 C 12,4 C 8,4 C 54 % 58 % 997,7 hPa 0,0 l/m 1,2 km/h (1 Bft) N-NW 340 0 min
31.03.2018 19:30 11,9 C 12,2 C 8,4 C 55 % 59 % 997,7 hPa 0,0 l/m 0,0 km/h (0 Bft) W 260 0 min
31.03.2018 19:35 11,9 C 11,8 C 8,2 C 55 % 62 % 997,7 hPa 0,0 l/m 0,0 km/h (0 Bft) W 260 0 min
31.03.2018 19:40 11,2 C 11,5 C 8,2 C 60 % 62 % 996,7 hPa 0,0 l/m 0,0 km/h (0 Bft) W-SW 240 0 min
31.03.2018 19:45 11,2 C 11,4 C 8,0 C 60 % 63 % 996,7 hPa 0,0 l/m 0,0 km/h (0 Bft) W-SW 240 0 min
31.03.2018 19:50 11,2 C 11,1 C 8,0 C 60 % 65 % 996,7 hPa 0,0 l/m 0,0 km/h (0 Bft) W-SW 240 0 min
31.03.2018 19:55 11,2 C 10,9 C 8,0 C 60 % 64 % 997,7 hPa 0,0 l/m 0,0 km/h (0 Bft) W-SW 240 0 min
31.03.2018 20:00 11,2 C 10,8 C 8,0 C 60 % 64 % 997,7 hPa 0,0 l/m 0,0 km/h (0 Bft) W-SW 240 0 min
31.03.2018 20:05 11,2 C 10,8 C 8,0 C 60 % 64 % 997,7 hPa 0,0 l/m 0,0 km/h (0 Bft) W-SW 240 0 min
31.03.2018 20:10 10,6 C 10,8 C 8,0 C 61 % 64 % 997,7 hPa 0,0 l/m 0,0 km/h (0 Bft) NW 310 0 min
31.03.2018 20:15 10,6 C 10,7 C 8,0 C 61 % 64 % 997,7 hPa 0,0 l/m 0,0 km/h (0 Bft) NW 310 0 min
31.03.2018 20:20 10,6 C 10,7 C 8,0 C 61 % 65 % 997,7 hPa 0,0 l/m 0,0 km/h (0 Bft) NW 310 0 min
31.03.2018 20:25 10,7 C 10,7 C 8,0 C 62 % 64 % 997,7 hPa 0,0 l/m 0,0 km/h (0 Bft) NO 40 0 min
31.03.2018 20:30 10,8 C 10,8 C 8,0 C 62 % 64 % 997,7 hPa 0,0 l/m 4,2 km/h (1 Bft) W 275 0 min
31.03.2018 20:35 10,8 C 10,6 C 8,0 C 62 % 67 % 997,7 hPa 0,0 l/m 4,2 km/h (1 Bft) W 275 0 min
31.03.2018 20:40 9,5 C 10,0 C 7,9 C 70 % 70 % 998,7 hPa 0,0 l/m 27,1 km/h (5 Bft) W 270 0 min
31.03.2018 20:45 9,5 C 9,8 C 7,9 C 70 % 70 % 998,7 hPa 0,0 l/m 27,1 km/h (5 Bft) W 270 0 min
31.03.2018 20:50 9,3 C 9,7 C 7,9 C 71 % 71 % 998,7 hPa 0,0 l/m 20,0 km/h (4 Bft) W 275 0 min
31.03.2018 20:55 9,3 C 9,5 C 7,9 C 71 % 71 % 998,7 hPa 0,0 l/m 20,0 km/h (4 Bft) W 275 0 min
31.03.2018 21:00 9,3 C 9,4 C 7,7 C 71 % 71 % 998,7 hPa 0,0 l/m 20,0 km/h (4 Bft) W 275 0 min
31.03.2018 21:05 9,2 C 9,3 C 7,7 C 71 % 73 % 998,7 hPa 0,0 l/m 13,3 km/h (3 Bft) S 175 0 min
31.03.2018 21:10 8,8 C 9,1 C 7,7 C 75 % 76 % 998,7 hPa 0,3 l/m 18,2 km/h (3 Bft) W-SW 255 0 min
31.03.2018 21:15 8,5 C 8,8 C 7,5 C 76 % 77 % 998,7 hPa 0,0 l/m 12,7 km/h (3 Bft) SW 215 0 min
31.03.2018 21:20 8,3 C 8,6 C 7,5 C 79 % 79 % 998,7 hPa 0,3 l/m 13,9 km/h (3 Bft) S-SO 160 0 min
31.03.2018 21:25 8,2 C 8,5 C 7,5 C 79 % 80 % 999,8 hPa 0,0 l/m 9,7 km/h (2 Bft) SW 235 0 min
31.03.2018 21:30 8,2 C 8,4 C 7,5 C 80 % 80 % 999,8 hPa 0,0 l/m 13,3 km/h (3 Bft) SW 220 0 min
31.03.2018 21:35 8,1 C 8,4 C 7,5 C 81 % 81 % 999,8 hPa 0,0 l/m 12,1 km/h (2 Bft) SW 215 0 min
31.03.2018 21:40 8,1 C 8,3 C 7,5 C 82 % 82 % 998,8 hPa 0,0 l/m 7,9 km/h (2 Bft) W-SW 240 0 min
31.03.2018 21:45 8,0 C 8,2 C 7,5 C 83 % 82 % 998,8 hPa 0,0 l/m 9,1 km/h (2 Bft) W 280 0 min
31.03.2018 21:50 7,8 C 8,1 C 7,5 C 83 % 82 % 998,8 hPa 0,0 l/m 15,1 km/h (3 Bft) W-SW 255 0 min
31.03.2018 21:55 7,8 C 8,0 C 7,3 C 83 % 82 % 999,8 hPa 0,0 l/m 10,9 km/h (2 Bft) W-NW 295 0 min
31.03.2018 22:00 7,7 C 8,0 C 7,3 C 84 % 83 % 999,8 hPa 0,0 l/m 8,5 km/h (2 Bft) NW 305 0 min
31.03.2018 22:05 7,7 C 7,9 C 7,3 C 85 % 84 % 999,8 hPa 0,0 l/m 11,5 km/h (2 Bft) W-NW 290 0 min
31.03.2018 22:10 7,7 C 7,9 C 7,3 C 85 % 84 % 999,8 hPa 0,0 l/m 8,5 km/h (2 Bft) O-SO 115 0 min
31.03.2018 22:15 7,6 C 7,8 C 7,3 C 86 % 85 % 999,8 hPa 0,0 l/m 4,8 km/h (1 Bft) W 280 0 min
31.03.2018 22:20 7,6 C 7,8 C 7,3 C 86 % 86 % 999,8 hPa 0,0 l/m 7,3 km/h (2 Bft) W 265 0 min
31.03.2018 22:25 7,6 C 7,8 C 7,3 C 86 % 86 % 999,8 hPa 0,0 l/m 7,9 km/h (2 Bft) W-NW 285 0 min
31.03.2018 22:30 7,6 C 7,8 C 7,3 C 87 % 86 % 999,8 hPa 0,0 l/m 2,4 km/h (1 Bft) SW 235 0 min
31.03.2018 22:35 7,6 C 7,8 C 7,3 C 87 % 86 % 999,8 hPa 0,0 l/m 3,6 km/h (1 Bft) W 270 0 min
31.03.2018 22:40 7,6 C 7,7 C 7,3 C 87 % 86 % 999,8 hPa 0,0 l/m 0,0 km/h (0 Bft) NW 315 0 min
31.03.2018 22:45 7,5 C 7,8 C 7,3 C 88 % 86 % 999,8 hPa 0,0 l/m 0,0 km/h (0 Bft) W 260 0 min
31.03.2018 22:50 7,5 C 7,7 C 7,3 C 88 % 85 % 999,8 hPa 0,0 l/m 0,0 km/h (0 Bft) SW 235 0 min
31.03.2018 22:55 7,5 C 7,7 C 7,3 C 88 % 86 % 999,8 hPa 0,0 l/m 0,0 km/h (0 Bft) N 355 0 min
31.03.2018 23:00 7,5 C 7,7 C 7,2 C 88 % 86 % 999,8 hPa 0,0 l/m 0,0 km/h (0 Bft) W-SW 245 0 min
31.03.2018 23:05 7,5 C 7,8 C 7,2 C 89 % 85 % 999,8 hPa 0,0 l/m 0,0 km/h (0 Bft) W-SW 255 0 min
31.03.2018 23:10 7,4 C 7,8 C 7,2 C 88 % 85 % 999,8 hPa 0,0 l/m 0,0 km/h (0 Bft) N 0 0 min
31.03.2018 23:15 7,5 C 7,8 C 7,2 C 89 % 86 % 999,8 hPa 0,0 l/m 0,0 km/h (0 Bft) W-SW 255 0 min
31.03.2018 23:20 7,5 C 7,8 C 7,2 C 89 % 86 % 999,8 hPa 0,0 l/m 0,0 km/h (0 Bft) W-NW 285 0 min
31.03.2018 23:25 7,4 C 7,7 C 7,2 C 89 % 87 % 999,8 hPa 0,0 l/m 0,0 km/h (0 Bft) W-NW 295 0 min
31.03.2018 23:30 7,4 C 7,7 C 7,2 C 89 % 86 % 999,8 hPa 0,0 l/m 0,0 km/h (0 Bft) W-NW 290 0 min
31.03.2018 23:35 7,4 C 7,7 C 7,2 C 90 % 86 % 999,8 hPa 0,0 l/m 0,0 km/h (0 Bft) S-SW 200 0 min
31.03.2018 23:40 7,4 C 7,7 C 7,2 C 90 % 86 % 999,8 hPa 0,0 l/m 0,0 km/h (0 Bft) S-SW 200 0 min
31.03.2018 23:45 7,4 C 7,7 C 7,2 C 90 % 86 % 999,8 hPa 0,0 l/m 2,4 km/h (1 Bft) S 180 0 min
31.03.2018 23:50 7,4 C 7,6 C 7,3 C 91 % 86 % 999,8 hPa 0,0 l/m 3,6 km/h (1 Bft) S 180 0 min
31.03.2018 23:55 7,5 C 7,7 C 7,3 C 91 % 86 % 999,8 hPa 0,0 l/m 4,2 km/h (1 Bft) S-SW 195 0 min
_ Min-Zeit 07:40 07:00 07:15 13:50 16:00 03:25 - 04:35 - - -
Minimum _ 3,9 C 4,0 C 4,5 C 51 % 55 % 994,7 hPa - 0,0 km/h (0 Bft) - - -
_ Max-Zeit 13:45 16:30 18:20 07:25 08:15 23:50 21:10 20:40 - - 08:55
Maximum _ 13,5 C 13,4 C 10,4 C 96 % 92 % 999,8 hPa 0,3 l/m 27,1 km/h
W (5 Bft)
- - 16 min
Durchschnitt _ 9,0 C 9,0 C 7,3 C 74 % 75 % 997,3 hPa #0,6 l/m 7,7 km/h (2 Bft) SO - #9:42 h